Arden, NC

4:47 AM EST on December 06, 2016 (GMT -0500)
Asheville Regional

Weather History for KAVL - August, 2007

Change the Weather History Date:

Tuesday, August 21, 2007

  Actual Average Record
Temperature  
Mean Temperature 78 °F 73 °F  
Max Temperature 92 °F 83 °F 100 °F (1983)
Min Temperature 63 °F 63 °F 49 °F (1918)
Degree Days  
Heating Degree Days 0 0  
Month to date heating degree days 0 0  
Since 1 June heating degree days 14  
Since 1 July heating degree days 0 0  
Cooling Degree Days 13 8  
Month to date cooling degree days 257 179  
Year to date cooling degree days 700 689  
Since 1 June cooling degree days 631  
Growing Degree Days 28 (Base 50)    
Moisture  
Dew Point 65 °F    
Average Humidity 64    
Maximum Humidity 90    
Minimum Humidity 38    
Precipitation  
Precipitation 0.16 in 0.15 in 4.32 in (1990)
Month to date precipitation 0.75 2.98  
Year to date precipitation 20.33 30.19  
Snow  
Snow 0.00 in 0.00 in 0.00 in ()
Month to date snowfall 0.0 0.0  
Since 1 June snowfall 0.0  
Since 1 July snowfall 0.0 0.0  
Snow Depth -    
Sea Level Pressure  
Sea Level Pressure 30.12 in    
Wind  
Wind Speed 3 mph (NW)    
Max Wind Speed 28 mph    
Max Gust Speed 32 mph    
Visibility 8 miles    
Events Rain    
T = Trace of Precipitation, MM = Missing Value Source: NWS Daily Summary

Daily Weather History Graph

Daily Weather History Graph

Search for Another Location

Airport or City:

Trip Planner

Search our weather history database for the weather conditions in past years. The results will help you decide how hot, cold, wet, or windy it might be!

Date:

Astronomy

Aug. 21, 2007 Rise Set
Actual Time 6:53 AM EDT 8:12 PM EDT
Civil Twilight 6:27 AM EDT 8:38 PM EDT
Nautical Twilight 5:55 AM EDT 9:10 PM EDT
Astronomical Twilight 5:22 AM EDT 9:43 PM EDT
Moon 3:13 PM EDT (8/21) 12:00 AM EDT (8/21)
Length of Visible Light 14h 11m
Length of Day
13h 18m
First Quarter, 57% of the Moon is Illuminated
Aug 21
First Quarter
Aug 28
Full
Sep 3
Last Quarter
Sep 11
New
Sep 19
First Quarter

Hourly Weather History & Observations

Time (EDT) Temp. Heat Index Dew Point Humidity Pressure Visibility Wind Dir Wind Speed Gust Speed Precip Events Conditions
12:54 AM 70.0 °F - 64.9 °F 84% 30.09 in 9.0 mi Calm Calm - N/A   Clear
1:54 AM 70.0 °F - 64.0 °F 81% 30.09 in 8.0 mi Calm Calm - N/A   Clear
2:54 AM 68.0 °F - 64.0 °F 87% 30.09 in 7.0 mi Calm Calm - N/A   Clear
3:54 AM 66.9 °F - 62.1 °F 84% 30.09 in 7.0 mi Calm Calm - N/A   Clear
4:54 AM 64.9 °F - 61.0 °F 87% 30.09 in 6.0 mi Calm Calm - N/A   Clear
5:54 AM 64.9 °F - 61.0 °F 87% 30.11 in 6.0 mi Calm Calm - N/A   Clear
6:54 AM 64.0 °F - 61.0 °F 90% 30.13 in 6.0 mi NNW 3.5 mph - N/A   Clear
7:54 AM 66.0 °F - 62.1 °F 87% 30.13 in 5.0 mi Calm Calm - N/A   Clear
8:54 AM 71.1 °F - 64.0 °F 78% 30.14 in 7.0 mi Calm Calm - N/A   Clear
9:54 AM 77.0 °F - 64.0 °F 64% 30.14 in 9.0 mi Calm Calm - N/A   Clear
10:54 AM 82.9 °F 84.6 °F 64.9 °F 54% 30.14 in 10.0 mi SW 3.5 mph - N/A   Clear
11:54 AM 86.0 °F 87.3 °F 64.0 °F 48% 30.13 in 10.0 mi SSE 6.9 mph - N/A   Clear
12:54 PM 89.1 °F 90.0 °F 63.0 °F 42% 30.11 in 10.0 mi SW 9.2 mph - N/A   Partly Cloudy
1:54 PM 91.0 °F 91.5 °F 62.1 °F 38% 30.09 in 10.0 mi South 6.9 mph - N/A   Clear
2:54 PM 91.0 °F 91.9 °F 63.0 °F 39% 30.08 in 10.0 mi SW 8.1 mph - N/A   Partly Cloudy
3:06 PM 84.2 °F 85.6 °F 64.4 °F 51% 30.19 in 10.0 mi North 19.6 mph 32.2 mph N/A   Squalls
3:22 PM 78.8 °F - 64.4 °F 61% 30.20 in 10.0 mi North 13.8 mph 21.9 mph 0.00 in Rain Light Rain
3:35 PM 73.4 °F - 66.2 °F 78% 30.22 in 1.8 mi NNW 8.1 mph 18.4 mph 0.03 in Rain Heavy Rain
3:46 PM 73.4 °F - 66.2 °F 78% 30.19 in 3.0 mi NNE 5.8 mph - 0.16 in Rain Light Rain
3:54 PM 73.9 °F - 66.9 °F 79% 30.12 in 10.0 mi Variable 4.6 mph - 0.16 in Rain Light Rain
4:54 PM 78.1 °F - 69.1 °F 74% 30.12 in 10.0 mi NNW 5.8 mph - 0.00 in   Mostly Cloudy
5:54 PM 81.0 °F 83.8 °F 68.0 °F 65% 30.11 in 10.0 mi North 8.1 mph - N/A   Clear
6:54 PM 79.0 °F - 68.0 °F 69% 30.10 in 10.0 mi NNW 5.8 mph - N/A   Clear
7:54 PM 78.1 °F - 69.1 °F 74% 30.10 in 10.0 mi WNW 4.6 mph - N/A   Clear
8:54 PM 77.0 °F - 69.1 °F 76% 30.11 in 10.0 mi Calm Calm - N/A   Clear
9:54 PM 75.0 °F - 69.1 °F 82% 30.11 in 10.0 mi Calm Calm - N/A   Clear
10:54 PM 73.0 °F - 68.0 °F 84% 30.11 in 10.0 mi NW 5.8 mph - N/A   Clear
11:54 PM 72.0 °F - 68.0 °F 87% 30.11 in 8.0 mi NNW 4.6 mph - N/A   Clear